Weather History for Price, UT

Change the Weather History Date:

Monday, April 21, 2014

  Actual Average Record
Temperature  
Mean Temperature 56 °F -  
Max Temperature 75 °F 58 °F 82 °F (1989)
Min Temperature 39 °F 33 °F 19 °F (2002)
Degree Days  
Heating Degree Days 9    
Growing Degree Days 6 (Base 50)    
Moisture  
Dew Point 25 °F    
Average Humidity 30    
Maximum Humidity 46    
Minimum Humidity 15    
Precipitation  
Precipitation 0.00 in - - ()
Sea Level Pressure  
Sea Level Pressure 30.06 in    
Wind  
Wind Speed 7 mph (ENE)    
Max Wind Speed 13 mph    
Max Gust Speed 21 mph    
Visibility 10 miles    
Events      
Averages and records for this station are not official NWS values.
T = Trace of Precipitation, MM = Missing Value Source: NWS Daily Summary

Daily Weather History Graph

Daily Weather History Graph

Search for Another Location

Airport:

Trip Planner

Search our weather history database for the weather conditions in past years. The results will help you decide how hot, cold, wet, or windy it might be!

Date:

Astronomy

Apr. 21, 2014 Rise Set
Actual Time 6:36 AM MDT 8:07 PM MDT
Civil Twilight 6:08 AM MDT 8:35 PM MDT
Nautical Twilight 5:34 AM MDT 9:09 PM MDT
Astronomical Twilight 4:58 AM MDT 9:45 PM MDT
Moon 1:39 AM MDT (4/21) 12:07 PM MDT (4/21)
Length of Visible Light 14h 26m
Length of Day
13h 30m
Waning Gibbous, 57% of the Moon is Illuminated
Apr 21
Waning Gibbous
Apr 22
Last Quarter
Apr 29
New
May 6
First Quarter
May 14
Full

Hourly Weather History & Observations

Time (MDT) Temp. Windchill Dew Point Humidity Pressure Visibility Wind Dir Wind Speed Gust Speed Precip Events Conditions
12:53 AM 46.9 °F - 25.0 °F 42% 30.09 in 10.0 mi NNW 8.1 mph - N/A   Mostly Cloudy
1:53 AM 45.0 °F 41.2 °F 25.0 °F 46% 30.13 in 10.0 mi North 6.9 mph - N/A   Clear
2:53 AM 46.9 °F - 24.1 °F 41% 30.10 in 10.0 mi North 6.9 mph - N/A   Clear
3:53 AM 44.1 °F 40.8 °F 23.0 °F 43% 30.12 in 10.0 mi NNW 5.8 mph - N/A   Clear
4:53 AM 42.1 °F 36.1 °F 21.9 °F 45% 30.12 in 10.0 mi NNE 10.4 mph - N/A   Clear
5:53 AM 39.9 °F 37.8 °F 19.9 °F 45% 30.14 in 10.0 mi ENE 3.5 mph - N/A   Clear
6:53 AM 39.0 °F 32.8 °F 18.0 °F 43% 30.15 in 10.0 mi NNE 9.2 mph - N/A   Clear
7:53 AM 46.9 °F - 21.0 °F 36% 30.15 in 10.0 mi Calm Calm - N/A   Partly Cloudy
8:53 AM 54.0 °F - 21.9 °F 29% 30.16 in 10.0 mi SE 3.5 mph - N/A   Clear
9:53 AM 60.1 °F - 19.0 °F 20% 30.15 in 10.0 mi Calm Calm - N/A   Clear
10:53 AM 64.0 °F - 19.9 °F 18% 30.13 in 10.0 mi Variable 3.5 mph - N/A   Clear
11:53 AM 66.9 °F - 23.0 °F 19% 30.11 in 10.0 mi SSW 10.4 mph - N/A   Clear
12:53 PM 69.1 °F - 24.1 °F 18% 30.10 in 10.0 mi South 4.6 mph - N/A   Partly Cloudy
1:53 PM 70.0 °F - 23.0 °F 17% 30.07 in 10.0 mi Variable 4.6 mph 20.7 mph N/A   Clear
2:53 PM 73.0 °F - 23.0 °F 15% 30.02 in 10.0 mi Variable 3.5 mph - N/A   Partly Cloudy
3:53 PM 73.9 °F - 24.1 °F 16% 30.00 in 10.0 mi Variable 5.8 mph 17.3 mph N/A   Clear
4:53 PM 72.0 °F - 26.1 °F 18% 30.00 in 10.0 mi SE 12.7 mph - N/A   Scattered Clouds
5:53 PM 70.0 °F - 28.0 °F 21% 30.01 in 10.0 mi East 8.1 mph - N/A   Partly Cloudy
6:53 PM 69.1 °F - 27.0 °F 21% 30.01 in 10.0 mi East 3.5 mph - N/A   Mostly Cloudy
7:53 PM 66.0 °F - 30.9 °F 27% 29.97 in 10.0 mi SSE 11.5 mph - N/A   Mostly Cloudy
8:53 PM 64.0 °F - 32.0 °F 30% 29.95 in 10.0 mi ESE 9.2 mph - N/A   Mostly Cloudy
9:53 PM 62.1 °F - 33.1 °F 34% 29.94 in 10.0 mi ENE 6.9 mph - N/A   Clear
10:53 PM 55.0 °F - 30.9 °F 40% 29.94 in 10.0 mi NE 3.5 mph - N/A   Scattered Clouds
11:53 PM 54.0 °F - 32.0 °F 43% 29.91 in 10.0 mi NE 8.1 mph - N/A   Clear